TimeMST,TemperatureF,Dew PointF,Humidity,Sea Level PressureIn,VisibilityMPH,Wind Direction,Wind SpeedMPH,Gust SpeedMPH,PrecipitationIn,Events,Conditions,WindDirDegrees,DateUTC
12:15 AM,28.4,26.6,93,29.73,3.0,North,9.2,-,N/A,,Overcast,350,2013-02-24 07:15:00
12:35 AM,28.4,26.6,93,29.74,3.0,NNW,6.9,-,N/A,,Overcast,330,2013-02-24 07:35:00
12:55 AM,28.4,26.6,93,29.74,4.0,NNW,8.1,-,N/A,,Overcast,330,2013-02-24 07:55:00
1:15 AM,28.4,26.6,93,29.74,2.5,NNW,8.1,-,N/A,,Overcast,340,2013-02-24 08:15:00
1:35 AM,28.4,26.6,93,29.74,3.0,North,6.9,-,N/A,,Overcast,350,2013-02-24 08:35:00
1:55 AM,28.4,26.6,93,29.74,2.5,NNW,6.9,-,N/A,,Overcast,340,2013-02-24 08:55:00
2:15 AM,28.4,26.6,93,29.73,2.5,NNW,8.1,-,N/A,,Overcast,330,2013-02-24 09:15:00
2:35 AM,28.4,26.6,93,29.72,3.0,NNW,8.1,-,N/A,,Overcast,330,2013-02-24 09:35:00
2:55 AM,28.4,26.6,93,29.72,4.0,NW,8.1,-,N/A,,Overcast,320,2013-02-24 09:55:00
3:15 AM,26.6,26.6,100,29.72,10.0,NNW,5.8,-,N/A,,Overcast,330,2013-02-24 10:15:00
3:35 AM,26.6,26.6,100,29.72,10.0,North,4.6,-,N/A,,Overcast,360,2013-02-24 10:35:00
3:55 AM,28.4,26.6,93,29.73,10.0,North,3.5,-,N/A,,Overcast,360,2013-02-24 10:55:00
4:15 AM,28.4,26.6,93,29.73,10.0,North,4.6,-,N/A,,Overcast,360,2013-02-24 11:15:00
4:35 AM,28.4,26.6,93,29.74,9.0,North,4.6,-,N/A,,Overcast,360,2013-02-24 11:35:00
4:55 AM,28.4,26.6,93,29.74,2.5,North,3.5,-,N/A,,Overcast,360,2013-02-24 11:55:00
5:15 AM,28.4,26.6,93,29.76,2.0,North,5.8,-,N/A,,Overcast,10,2013-02-24 12:15:00
5:35 AM,28.4,26.6,93,29.76,3.0,North,9.2,-,N/A,,Overcast,10,2013-02-24 12:35:00
5:55 AM,28.4,26.6,93,29.77,3.0,North,8.1,-,N/A,,Overcast,10,2013-02-24 12:55:00
6:15 AM,28.4,26.6,93,29.78,2.5,North,9.2,-,N/A,,Overcast,350,2013-02-24 13:15:00
6:35 AM,28.4,26.6,93,29.79,2.0,North,10.4,-,N/A,,Overcast,350,2013-02-24 13:35:00
6:55 AM,28.4,26.6,93,29.80,1.0,North,13.8,-,N/A,,Overcast,350,2013-02-24 13:55:00
7:15 AM,28.4,26.6,93,29.81,1.0,NNW,16.1,-,N/A,,Overcast,340,2013-02-24 14:15:00
7:35 AM,26.6,24.8,93,29.82,1.2,NNW,16.1,-,N/A,,Overcast,340,2013-02-24 14:35:00
7:55 AM,26.6,24.8,93,29.83,0.5,NNW,23.0,-,N/A,,Overcast,330,2013-02-24 14:55:00
8:15 AM,26.6,24.8,93,29.85,0.2,NNW,21.9,29.9,N/A,,Overcast,340,2013-02-24 15:15:00
8:35 AM,26.6,24.8,93,29.86,0.5,North,23.0,-,N/A,,Overcast,350,2013-02-24 15:35:00
8:55 AM,26.6,24.8,93,29.87,0.8,North,18.4,23.0,N/A,,Overcast,350,2013-02-24 15:55:00
9:15 AM,26.6,24.8,93,29.89,0.5,North,17.3,-,N/A,,Overcast,350,2013-02-24 16:15:00
9:35 AM,26.6,24.8,93,29.90,0.5,North,21.9,-,N/A,,Overcast,350,2013-02-24 16:35:00
9:55 AM,26.6,24.8,93,29.91,0.5,North,21.9,-,N/A,,Overcast,350,2013-02-24 16:55:00
10:15 AM,26.6,23.0,86,29.92,0.5,North,20.7,-,N/A,,Overcast,350,2013-02-24 17:15:00
10:35 AM,26.6,24.8,93,29.92,0.8,North,18.4,-,N/A,,Overcast,350,2013-02-24 17:35:00
10:55 AM,26.6,24.8,93,29.93,1.0,North,20.7,25.3,N/A,,Overcast,360,2013-02-24 17:55:00
11:15 AM,26.6,24.8,93,29.93,1.5,North,20.7,31.1,N/A,,Overcast,360,2013-02-24 18:15:00
11:35 AM,26.6,21.2,80,29.94,1.2,North,19.6,-,N/A,,Overcast,350,2013-02-24 18:35:00
11:55 AM,26.6,23.0,86,29.94,1.2,North,21.9,28.8,N/A,,Overcast,350,2013-02-24 18:55:00
12:15 PM,26.6,23.0,86,29.94,1.2,North,20.7,-,N/A,,Overcast,360,2013-02-24 19:15:00
12:35 PM,26.6,23.0,86,29.94,1.2,North,17.3,23.0,N/A,,Overcast,350,2013-02-24 19:35:00
12:55 PM,26.6,21.2,80,29.95,1.0,North,19.6,26.5,N/A,,Overcast,360,2013-02-24 19:55:00
1:15 PM,26.6,23.0,86,29.95,1.5,North,15.0,-,N/A,,Overcast,350,2013-02-24 20:15:00
1:35 PM,26.6,21.2,80,29.95,0.8,North,16.1,28.8,N/A,,Overcast,350,2013-02-24 20:35:00
1:55 PM,26.6,23.0,86,29.96,0.5,North,21.9,26.5,N/A,,Overcast,350,2013-02-24 20:55:00
2:15 PM,26.6,23.0,86,29.96,0.2,North,15.0,-,N/A,,Overcast,360,2013-02-24 21:15:00
2:35 PM,26.6,24.8,93,29.97,0.2,North,16.1,-,N/A,,Overcast,350,2013-02-24 21:35:00
2:55 PM,26.6,24.8,93,29.97,0.2,North,15.0,-,N/A,,Overcast,350,2013-02-24 21:55:00
3:15 PM,26.6,24.8,93,29.98,0.5,North,16.1,-,N/A,,Overcast,350,2013-02-24 22:15:00
3:35 PM,26.6,24.8,93,29.98,0.5,North,15.0,-,N/A,,Overcast,360,2013-02-24 22:35:00
3:55 PM,26.6,24.8,93,30.00,0.8,North,19.6,-,N/A,,Overcast,350,2013-02-24 22:55:00
4:15 PM,26.6,24.8,93,30.00,1.0,North,16.1,-,N/A,,Overcast,350,2013-02-24 23:15:00
4:35 PM,26.6,23.0,86,30.01,1.8,North,18.4,-,N/A,,Overcast,350,2013-02-24 23:35:00
4:55 PM,26.6,23.0,86,30.02,2.5,North,18.4,-,N/A,,Overcast,360,2013-02-24 23:55:00
5:15 PM,26.6,23.0,86,30.03,2.0,North,17.3,-,N/A,,Overcast,360,2013-02-25 00:15:00
5:35 PM,26.6,23.0,86,30.04,2.5,North,17.3,-,N/A,,Overcast,360,2013-02-25 00:35:00
5:55 PM,26.6,23.0,86,30.04,9.0,North,12.7,-,N/A,,Overcast,360,2013-02-25 00:55:00
6:15 PM,26.6,21.2,80,30.05,7.0,North,15.0,19.6,N/A,,Overcast,360,2013-02-25 01:15:00
6:35 PM,26.6,21.2,80,30.06,10.0,North,11.5,-,N/A,,Overcast,10,2013-02-25 01:35:00
6:55 PM,26.6,19.4,74,30.07,10.0,North,11.5,-,N/A,,Overcast,360,2013-02-25 01:55:00
7:15 PM,26.6,17.6,69,30.07,10.0,North,10.4,-,N/A,,Overcast,10,2013-02-25 02:15:00
7:35 PM,24.8,17.6,74,30.07,10.0,North,9.2,-,N/A,,Scattered Clouds,10,2013-02-25 02:35:00
7:55 PM,24.8,15.8,69,30.07,10.0,North,6.9,-,N/A,,Scattered Clouds,10,2013-02-25 02:55:00
8:15 PM,23.0,15.8,74,30.08,10.0,North,5.8,-,N/A,,Clear,10,2013-02-25 03:15:00
8:35 PM,21.2,15.8,80,30.08,10.0,NNE,6.9,-,N/A,,Clear,30,2013-02-25 03:35:00
8:55 PM,21.2,14.0,74,30.08,10.0,NNE,10.4,-,N/A,,Clear,20,2013-02-25 03:55:00
9:15 PM,21.2,15.8,80,30.08,10.0,NNE,10.4,-,N/A,,Clear,20,2013-02-25 04:15:00
9:35 PM,21.2,15.8,80,30.08,10.0,North,8.1,-,N/A,,Clear,10,2013-02-25 04:35:00
9:55 PM,15.8,10.4,79,30.09,10.0,WNW,5.8,-,N/A,,Clear,300,2013-02-25 04:55:00
10:15 PM,15.8,14.0,93,30.09,10.0,NW,4.6,-,N/A,,Clear,320,2013-02-25 05:15:00
10:35 PM,19.4,15.8,86,30.09,10.0,North,6.9,-,N/A,,Clear,360,2013-02-25 05:35:00
10:55 PM,19.4,14.0,80,30.08,10.0,North,4.6,-,N/A,,Clear,10,2013-02-25 05:55:00
11:15 PM,17.6,10.4,73,30.08,10.0,NNW,3.5,-,N/A,,Mostly Cloudy,330,2013-02-25 06:15:00
11:35 PM,17.6,10.4,73,30.07,10.0,Calm,Calm,-,N/A,,Mostly Cloudy,0,2013-02-25 06:35:00
11:55 PM,17.6,14.0,86,30.07,10.0,Calm,Calm,-,N/A,,Scattered Clouds,0,2013-02-25 06:55:00